Cloud_Cover
100 100 100 100 100 100 100 98 17 93 17 9 98 78 5 57 100 100 71 18 0 0 0 0 0 4 4 5 5 5 73 27 18 16 16 100 100 98 7 33 74 46 5 5 1
100 100 100 99 100 94 100 94 82 100 93 99 32 58 99 43 99 100 52 4 0 1 3 4 0 0 0 1 6 58 72 6 5 40 14 53 81 87 100 14 77 100 70 10 6
100 100 100 100 99 100 100 100 100 100 100 88 68 100 98 40 11 28 5 0 10 100 100 38 0 0 0 0 5 43 46 25 5 5 51 5 98 100 100 41 63 100 100 45 85
100 100 100 100 100 100 100 100 100 14 20 40 94 68 77 92 4 82 100 98 100 91 17 0 0 0 0 0 1 75 21 8 26 81 41 11 75 100 100 43 100 88 6 55 96
100 100 100 100 100 100 100 100 100 100 56 100 9 7 92 100 71 73 79 100 100 100 17 3 0 1 0 0 2 47 44 26 30 29 50 15 58 100 79 99 9 5 5 30 70
100 100 100 100 100 100 88 100 98 100 34 72 87 42 75 91 11 66 77 62 100 95 50 5 0 0 0 0 0 5 34 16 5 5 5 12 23 54 41 36 32 5 5 6 9
100 100 100 100 100 100 99 100 100 100 88 15 5 9 97 18 92 77 6 5 93 97 6 4 5 5 5 1 0 4 5 5 5 3 5 60 86 60 10 69 5 5 5 67 41
100 100 100 100 100 93 99 100 100 70 28 81 100 84 100 95 10 98 62 73 100 100 8 5 5 5 7 1 0 4 13 5 5 2 5 34 79 98 80 5 5 55 5 97 100
100 100 100 100 100 100 99 100 100 87 64 100 86 99 100 94 33 71 25 92 100 100 89 5 5 14 13 5 5 5 5 45 16 5 5 5 92 100 86 5 5 5 89 7 5
100 100 100 100 100 100 100 100 100 98 96 83 56 23 96 80 71 6 88 86 100 100 100 96 5 98 99 8 16 61 24 32 36 5 11 99 100 100 45 95 96 100 100 70 79
100 100 100 100 100 100 100 100 100 100 100 100 100 92 100 98 5 79 96 100 100 100 100 100 100 100 5 13 30 91 59 39 33 5 6 87 98 100 100 99 100 100 100 100 100
100 100 100 100 100 100 100 100 100 100 100 100 100 100 100 100 100 100 100 100 100 100 100 100 100 100 100 100 100 100 100 100 52 20 6 93 100 96 100 72 42 88 92 62 83
100 100 100 100 100 100 100 100 100 100 100 100 60 100 100 76 100 100 100 100 100 100 100 100 100 100 100 100 100 100 100 100 89 73 33 69 100 100 100 99 86 53 92 83 82
100 100 100 100 100 100 100 100 100 100 100 100 100 32 100 100 100 100 100 100 100 100 100 100 100 100 100 100 100 100 100 85 47 42 69 23 50 100 100 100 100 97 98 100 99
100 100 100 100 100 100 100 100 100 100 100 100 100 100 100 100 100 100 100 100 100 100 100 100 100 100 100 100 100 100 100 100 99 16 21 85 11 100 100 100 100 100 63 20 99
100 100 100 100 100 100 100 100 100 100 100 100 100 100 100 100 100 100 100 100 100 100 100 100 100 100 100 100 100 98 96 98 69 37 16 91 41 100 100 100 100 100 100 100 100
100 100 100 100 100 100 100 100 100 100 99 100 100 100 100 100 100 100 100 100 100 100 100 100 100 100 100 99 70 25 18 24 18 13 5 66 68 100 100 100 100 100 100 82 96
100 100 100 100 100 100 100 100 100 100 99 100 100 100 100 100 100 100 100 100 100 100 100 100 100 100 100 100 99 100 85 21 5 41 22 6 6 97 92 100 100 100 75 9 68
100 100 100 100 100 100 100 100 100 100 100 94 93 100 100 100 100 100 100 100 100 100 100 100 100 99 56 72 43 50 69 63 76 57 9 63 85 47 100 87 83 10 39 5 5
100 100 100 100 100 100 100 100 100 100 100 100 83 100 100 100 100 100 100 88 73 97 100 100 100 70 32 82 92 99 86 100 100 95 55 92 87 35 6 92 100 42 43 5 5
100 100 100 100 100 100 100 100 100 100 100 100 99 100 100 100 100 100 100 91 100 100 100 96 98 69 68 94 100 96 100 98 95 92 96 8 0 5 68 100 58 80 5 9 96
100 100 100 100 100 100 100 100 100 100 100 100 100 100 100 100 100 100 100 100 100 94 100 100 78 97 100 99 99 100 100 100 100 100 100 99 1 66 100 88 14 5 4 30 27
100 100 100 100 100 100 100 100 100 100 100 100 100 100 100 100 100 100 100 94 91 99 75 91 74 100 100 71 75 100 100 100 100 100 100 100 95 100 98 30 9 5 5 11 77
100 100 100 100 100 100 100 100 100 100 100 100 100 100 100 100 100 100 100 100 100 97 96 100 100 97 96 100 100 100 100 100 100 100 100 100 88 95 77 77 25 30 89 100 100
100 100 100 100 100 100 100 100 100 100 100 100 100 100 100 100 100 100 100 100 100 98 100 96 60 100 100 100 100 100 100 100 100 100 91 16 95 81 94 98 87 100 100 100 100
100 100 100 100 100 100 100 100 100 100 100 100 100 100 100 100 100 100 100 100 100 78 100 100 99 100 100 100 100 100 100 100 100 100 100 65 44 100 99 57 74 79 100 100 10
100 100 100 100 100 100 100 100 100 100 100 100 100 100 100 100 100 100 100 100 100 100 100 100 100 100 100 100 100 100 100 100 100 100 100 100 100 18 58 80 80 56 71 42 5